Satellite: NOAA-14 Catalog number: 23455 Epoch time: 14162.42181233 Element set: 779 Inclination: 098.7784 deg RA of node: 245.9604 deg Eccentricity: 0.0010229 Arg of perigee: 061.2793 deg Mean anomaly: 051.5023 deg Mean motion: 14.13975343 rev/day Decay rate: -2.0e-08 rev/day^2 Epoch rev: 313 Checksum: 278
Satellite: NOAA-15 Catalog number: 25338 Epoch time: 14162.50884544 Element set: 214 Inclination: 098.7517 deg RA of node: 156.3787 deg Eccentricity: 0.0011250 Arg of perigee: 159.3656 deg Mean anomaly: 310.7805 deg Mean motion: 14.25428909 rev/day Decay rate: 1.12e-06 rev/day^2 Epoch rev: 83603 Checksum: 306
Satellite: RESURS Catalog number: 25394 Epoch time: 14162.95062664 Element set: 677 Inclination: 098.4120 deg RA of node: 127.5424 deg Eccentricity: 0.0000128 Arg of perigee: 244.0186 deg Mean anomaly: 152.3950 deg Mean motion: 14.24395031 rev/day Decay rate: -1.0e-08 rev/day^2 Epoch rev: 82757 Checksum: 279
Satellite: FENGYUN1 Catalog number: 25730 Epoch time: 14162.53317744 Element set: 166 Inclination: 098.9124 deg RA of node: 123.6591 deg Eccentricity: 0.0026335 Arg of perigee: 124.1335 deg Mean anomaly: 345.5978 deg Mean motion: 14.11897985 rev/day Decay rate: 7.08e-06 rev/day^2 Epoch rev: 77672 Checksum: 324
Satellite: OKEAN-0 Catalog number: 25860 Epoch time: 14161.99833439 Element set: 273 Inclination: 098.0419 deg RA of node: 125.8998 deg Eccentricity: 0.0002015 Arg of perigee: 096.6681 deg Mean anomaly: 306.7616 deg Mean motion: 14.75274769 rev/day Decay rate: 4.53e-06 rev/day^2 Epoch rev: 80124 Checksum: 329
Satellite: NOAA-16 Catalog number: 26536 Epoch time: 14162.44062453 Element set: 706 Inclination: 098.9908 deg RA of node: 222.7802 deg Eccentricity: 0.0010704 Arg of perigee: 196.6294 deg Mean anomaly: 284.7300 deg Mean motion: 14.13031021 rev/day Decay rate: 8.9e-07 rev/day^2 Epoch rev: 70730 Checksum: 284
Satellite: NOAA-17 Catalog number: 27453 Epoch time: 14162.43442679 Element set: 608 Inclination: 098.3133 deg RA of node: 162.4500 deg Eccentricity: 0.0011811 Arg of perigee: 184.9756 deg Mean anomaly: 175.1309 deg Mean motion: 14.24750370 rev/day Decay rate: 1.0e-07 rev/day^2 Epoch rev: 62186 Checksum: 287
Satellite: NOAA-18 Catalog number: 28654 Epoch time: 14162.51255453 Element set: 106 Inclination: 099.1471 deg RA of node: 141.8981 deg Eccentricity: 0.0013142 Arg of perigee: 280.3896 deg Mean anomaly: 187.6878 deg Mean motion: 14.12024482 rev/day Decay rate: 1.86e-06 rev/day^2 Epoch rev: 46676 Checksum: 322
Satellite: NOAA-19 Catalog number: 33591 Epoch time: 14162.46950019 Element set: 261 Inclination: 098.9441 deg RA of node: 107.5238 deg Eccentricity: 0.0014978 Arg of perigee: 133.0593 deg Mean anomaly: 334.5833 deg Mean motion: 14.11721619 rev/day Decay rate: 2.25e-06 rev/day^2 Epoch rev: 27518 Checksum: 306
/EX SB KEPS @ AMSAT $ORB14163.M Orbital Elements 14163.MISC
HR AMSAT ORBITAL ELEMENTS FOR MANNED AND MISCELLANEOUS SATELLITES FROM WA5QGD FORT WORTH,TX June 12, 2014 BID: ORB14163.M TO ALL RADIO AMATEURS BT
Satellite: HUBBLE Catalog number: 20580 Epoch time: 14163.16633530 Element set: 32 Inclination: 028.4706 deg RA of node: 070.1356 deg Eccentricity: 0.0002834 Arg of perigee: 231.2688 deg Mean anomaly: 279.6082 deg Mean motion: 15.05438903 rev/day Decay rate: 1.902e-05 rev/day^2 Epoch rev: 12396 Checksum: 271
Satellite: ISS Catalog number: 25544 Epoch time: 14163.41034720 Element set: 475 Inclination: 051.6463 deg RA of node: 123.2606 deg Eccentricity: 0.0004463 Arg of perigee: 095.0916 deg Mean anomaly: 048.4133 deg Mean motion: 15.50671879 rev/day Decay rate: 7.401e-05 rev/day^2 Epoch rev: 89058 Checksum: 286
Satellite: CO-58 Catalog number: 28895 Epoch time: 14162.46082700 Element set: 790 Inclination: 097.8354 deg RA of node: 004.6264 deg Eccentricity: 0.0017876 Arg of perigee: 033.7645 deg Mean anomaly: 326.4692 deg Mean motion: 14.61890685 rev/day Decay rate: 4.98e-06 rev/day^2 Epoch rev: 45941 Checksum: 351
Satellite: FALCON Catalog number: 30776 Epoch time: 14162.11629817 Element set: 886 Inclination: 035.4279 deg RA of node: 151.3336 deg Eccentricity: 0.0003050 Arg of perigee: 243.1970 deg Mean anomaly: 182.9097 deg Mean motion: 15.16247197 rev/day Decay rate: 5.340e-05 rev/day^2 Epoch rev: 39981 Checksum: 309
Satellite: MAST Catalog number: 31126 Epoch time: 14162.50682741 Element set: 66 Inclination: 097.9134 deg RA of node: 143.6955 deg Eccentricity: 0.0092179 Arg of perigee: 013.0382 deg Mean anomaly: 101.3785 deg Mean motion: 14.55279074 rev/day Decay rate: 5.57e-06 rev/day^2 Epoch rev: 37956 Checksum: 308
Satellite: CAPE1 Catalog number: 31130 Epoch time: 14162.43247956 Element set: 72 Inclination: 097.9343 deg RA of node: 140.2710 deg Eccentricity: 0.0099570 Arg of perigee: 031.0928 deg Mean anomaly: 329.6110 deg Mean motion: 14.54439549 rev/day Decay rate: 8.20e-06 rev/day^2 Epoch rev: 37897 Checksum: 298
Satellite: COMPASS Catalog number: 32787 Epoch time: 14163.12256586 Element set: 954 Inclination: 097.7019 deg RA of node: 216.7986 deg Eccentricity: 0.0013916 Arg of perigee: 191.6726 deg Mean anomaly: 168.4170 deg Mean motion: 14.87889498 rev/day Decay rate: 2.956e-05 rev/day^2 Epoch rev: 33143 Checksum: 356
Satellite: AAUSAT2 Catalog number: 32788 Epoch time: 14162.79305595 Element set: 940 Inclination: 097.7029 deg RA of node: 217.4589 deg Eccentricity: 0.0013431 Arg of perigee: 190.7318 deg Mean anomaly: 169.3615 deg Mean motion: 14.88596334 rev/day Decay rate: 2.659e-05 rev/day^2 Epoch rev: 33144 Checksum: 338
Satellite: DO-64 Catalog number: 32789 Epoch time: 14162.73803949 Element set: 980 Inclination: 097.7221 deg RA of node: 223.8534 deg Eccentricity: 0.0012838 Arg of perigee: 175.6366 deg Mean anomaly: 333.0230 deg Mean motion: 14.93344641 rev/day Decay rate: 5.754e-05 rev/day^2 Epoch rev: 33168 Checksum: 328
Satellite: CO-66 Catalog number: 32791 Epoch time: 14162.13210872 Element set: 936 Inclination: 097.7017 deg RA of node: 214.6152 deg Eccentricity: 0.0014485 Arg of perigee: 198.4366 deg Mean anomaly: 161.6327 deg Mean motion: 14.86554778 rev/day Decay rate: 1.545e-05 rev/day^2 Epoch rev: 33115 Checksum: 319
Satellite: RS-30 Catalog number: 32953 Epoch time: 14163.24050391 Element set: 4 Inclination: 082.5026 deg RA of node: 204.2861 deg Eccentricity: 0.0019419 Arg of perigee: 162.9668 deg Mean anomaly: 197.2070 deg Mean motion: 12.43047977 rev/day Decay rate: 1.0e-07 rev/day^2 Epoch rev: 27464 Checksum: 281
Satellite: METEOR-M Catalog number: 35865 Epoch time: 14162.24421644 Element set: 616 Inclination: 098.5499 deg RA of node: 209.8371 deg Eccentricity: 0.0003200 Arg of perigee: 102.6050 deg Mean anomaly: 257.5490 deg Mean motion: 14.21923070 rev/day Decay rate: -4.2e-07 rev/day^2 Epoch rev: 24549 Checksum: 277
Satellite: RS-38 Catalog number: 35869 Epoch time: 14163.06038940 Element set: 538 Inclination: 098.5433 deg RA of node: 210.4294 deg Eccentricity: 0.0005853 Arg of perigee: 109.9368 deg Mean anomaly: 277.0249 deg Mean motion: 14.22212545 rev/day Decay rate: 3.1e-07 rev/day^2 Epoch rev: 24564 Checksum: 309
Satellite: JUGNU Catalog number: 37839 Epoch time: 14160.76289549 Element set: 633 Inclination: 019.9621 deg RA of node: 299.9366 deg Eccentricity: 0.0019102 Arg of perigee: 263.5105 deg Mean anomaly: 204.7341 deg Mean motion: 14.12311742 rev/day Decay rate: 3.99e-06 rev/day^2 Epoch rev: 13750 Checksum: 304
Satellite: SRMSAT Catalog number: 37841 Epoch time: 14162.51081896 Element set: 637 Inclination: 019.9723 deg RA of node: 308.5498 deg Eccentricity: 0.0011689 Arg of perigee: 222.5326 deg Mean anomaly: 210.5404 deg Mean motion: 14.10353218 rev/day Decay rate: 3.44e-06 rev/day^2 Epoch rev: 13755 Checksum: 291
Satellite: RAX-2 Catalog number: 37853 Epoch time: 14163.03300255 Element set: 829 Inclination: 101.7138 deg RA of node: 190.2153 deg Eccentricity: 0.0217040 Arg of perigee: 071.7489 deg Mean anomaly: 320.2376 deg Mean motion: 14.89378512 rev/day Decay rate: 8.498e-05 rev/day^2 Epoch rev: 14189 Checksum: 304
Satellite: AUBIESAT Catalog number: 37854 Epoch time: 14163.02429878 Element set: 811 Inclination: 101.7177 deg RA of node: 192.0438 deg Eccentricity: 0.0214869 Arg of perigee: 069.0396 deg Mean anomaly: 323.7045 deg Mean motion: 14.90692313 rev/day Decay rate: 9.125e-05 rev/day^2 Epoch rev: 14194 Checksum: 312
Satellite: HRBE Catalog number: 37855 Epoch time: 14162.62326670 Element set: 818 Inclination: 101.7180 deg RA of node: 190.8221 deg Eccentricity: 0.0216890 Arg of perigee: 071.4182 deg Mean anomaly: 043.5877 deg Mean motion: 14.90004365 rev/day Decay rate: 7.821e-05 rev/day^2 Epoch rev: 14185 Checksum: 292
Satellite: RS-39 Catalog number: 38051 Epoch time: 14163.12766451 Element set: 623 Inclination: 051.6261 deg RA of node: 248.2514 deg Eccentricity: 0.0001523 Arg of perigee: 209.4113 deg Mean anomaly: 222.6845 deg Mean motion: 15.60100610 rev/day Decay rate: 5.8941e-04 rev/day^2 Epoch rev: 13332 Checksum: 261
Satellite: E-STAR Catalog number: 38079 Epoch time: 14163.08723887 Element set: 880 Inclination: 069.4524 deg RA of node: 005.1142 deg Eccentricity: 0.0371818 Arg of perigee: 002.2814 deg Mean anomaly: 130.1402 deg Mean motion: 15.08336645 rev/day Decay rate: 8.7088e-04 rev/day^2 Epoch rev: 12269 Checksum: 300
Satellite: GOLIAT Catalog number: 38085 Epoch time: 14162.69834160 Element set: 110 Inclination: 069.4566 deg RA of node: 013.0915 deg Eccentricity: 0.0395162 Arg of perigee: 006.3878 deg Mean anomaly: 354.2101 deg Mean motion: 15.02358920 rev/day Decay rate: 8.2860e-04 rev/day^2 Epoch rev: 12245 Checksum: 286
